Regional Weather Roundup
Issued by NWS Newport/Morehead, NC

Current Version | Previous Version | Text Only | Print | Product List | Glossary On
Versions: 1 2 3 4 5 6 7 8 9 10 11 12 13 14 15 16 17 18 19 20 21 22 23 24 25 26 27 28 29 30 31 32 33 34 35 36 37 38 39 40 41 42 43 44 45 46 47 48 49 50
863
ASUS42 KMHX 072325
RWRMHX
WEATHER ROUNDUP FOR EASTERN NORTH CAROLINA
NATIONAL WEATHER SERVICE NEWPORT/MOREHEAD CITY NC
600 PM EST SUN FEB 07 2016

NOTE: "FAIR" INDICATES FEW OR NO CLOUDS BELOW 12,000 FEET
WITH NO SIGNIFICANT WEATHER AND/OR OBSTRUCTIONS TO VISIBILITY

NCZ015>017-031-032-045>047-102-103-080000-
NORTH COAST

CITY           SKY/WX    TMP DP  RH WIND       PRES   REMARKS
EDENTON        RAIN      38  35  87 N20G30    29.76F
ELIZABETH CITY RAIN      39  36  89 N25G35    29.75F
KITTY HAWK     RAIN      43  41  93 N21G32    29.63F
MANTEO         LGT RAIN  42  42 100 N31G44    29.65R

$$

NCZ045>047-081-094-103-104-080000-
CENTRAL COAST

CITY           SKY/WX    TMP DP  RH WIND       PRES   REMARKS
FRISCO         HVY RAIN  46  44  93 N23G53    29.50F FOG
SWANQUARTER      N/A     39 N/A N/A N14G35    29.59F

$$

NCZ095-097-098-100-101-080000-
SOUTHERN COAST

CITY           SKY/WX    TMP DP  RH WIND       PRES   REMARKS
BEAUFORT       RAIN      39  36  89 N30G47    29.56F FOG
CEDAR ISLAND     N/A     41 N/A N/A N44G66    29.62S
JACKSONVILLE   RAIN      36  32  85 N23G32    29.71F
PINEY ISLAND   LGT SNOW N/A N/A N/A N41G56    29.56F
WILMINGTON     LGT RAIN  37  32  82 N25G32    29.72F


$$

NCZ011>013-027>030-043-044-078>080-089-090>093-098-080000-
COASTAL PLAIN

CITY           SKY/WX    TMP DP  RH WIND       PRES   REMARKS
AHOSKIE        CLOUDY    40  24  52 N13G21    29.82F
CLINTON        LGT RAIN  38  32  80 N7G16     29.83R
ELIZABETHTOWN  LGT RAIN  38  33  80 NW6       29.83R
GOLDSBORO      CLOUDY    39  32  75 N14G21    29.78F
GREENVILLE     LGT RAIN  39  30  70 N14       29.82S
HAVELOCK       LGT RAIN  37  34  89 N38G47    29.64F FOG
KENANSVILLE    LGT RAIN  36  32  87 N5        29.81R
KINSTON        LGT RAIN  36  32  87 N14       29.79F
NEW BERN       RAIN      36  32  85 N22G41    29.70F
RICHLANDS      CLOUDY    36  28  75 NW12G25   29.75F
ROCKY MOUNT    CLOUDY    42  25  50 N17G25    29.83S
WASHINGTON     RAIN      35  31  85 N16G25    29.77F
WHITEVILLE     LGT RAIN  38  32  77 NW7       29.81S

$$

AMZ130-135-150-152-154-156-158-170-250-252-270-ANZ085-086-088-633-658-670-080000-
MARINE OBSERVATIONS

STATION/POSITION TIME  TEMP    WIND        PRES    WAVE   SWELL
                       AIR SEA DIR/SP/G            HT/PER HT/PER
                 (UTC) (F)     (DEG/KT/KT) (MB)    (FT/S) (FT/S)
CHESAPEAKE LIGHT 2300   42      20/ 39/ 45 1007.4
64 E VA BEACH    2250   50 54   30/ 37/ 47 1002.6   13/ 9   8/ 9
DUCK             2300   43 45   10/ 36/ 41 1003.2
2 E DUCK         2211      45                N/A    11/ 8   2/11
OREGON INLET     2300   45 45  350/ 26/ 40 1001.8
13E OREGON INLT  2300      47                N/A    16/ 9   5/11
HATTERAS CG      2300   45 47  350/ 41/ 51  998.5
DIAMOND BUOY     2250   55 71  360/ 39/ 52  994.8   17/ 8
CAPE LOOKOUT     NOT AVBL
BEAUFORT LAB     2300   39 47  350/ 34/ 45 1000.2
30 SE NEW RVR IN 2308   42 61               996.0
30 SE NEW RVR IN 2225      60                N/A    18/ 8   7/11
27 SE WRIGHTSVLE 2208   39     360/ 41      997.3
5 SE WRIGHTSVLE  2208   39 52  360/ 33/ 45 1004.5
225 S CAPE HAT   2250   62 69  250/ 31/ 39   N/A    12/ 8
41 SE CHARLESTON 2250   48 66  330/ 35/ 43 1008.3   12/ 7   2/17

$$




USA.gov is the U.S. government's official web portal to all federal, state and local government web resources and services.